Location: Novokuznetsk
(53.7500°N, 87.1000°E)
Time: 04:51:13
(UTC+06:00)

ISS - Pass Details

Date: 14 July 2018
Orbit: 402 x 408 km, 51.6° (Epoch: 16 July)

Event Time Altitude Azimuth Distance (km) Brightness Sun altitude
Exits shadow 00:29:50 18° 130° (SE) 1,080 -2.0 -14.5°
Drops below altitude 10° 00:31:33 10° 100° (E) 1,470 -1.1 -14.4°
Sets 00:34:01 0° 82° (E) 2,334 0.2 -14.4°
